�������r�C�����j�^�v���󋵏��
Date,Time,5�C6���@���p�r�C��,����,����(m/s)
2023/10/06,00:00,3.7,��쐼,3.1
2023/10/06,00:10,3.7,��쐼,4.3
2023/10/06,00:20,3.7,��쐼,3.9
2023/10/06,00:30,3.6,�쐼,3.2
2023/10/06,00:40,3.7,��쐼,3.2
2023/10/06,00:50,3.8,�쐼,3.3
2023/10/06,01:00,3.8,��쐼,2.5
2023/10/06,01:10,3.7,��쐼,2.6
2023/10/06,01:20,3.7,�쐼,3.1
2023/10/06,01:30,3.7,�쐼,2.5
2023/10/06,01:40,3.7,�쐼,1.9
2023/10/06,01:50,3.8,���쐼,3.0
2023/10/06,02:00,3.8,�쐼,1.7
2023/10/06,02:10,3.8,��쐼,2.0
2023/10/06,02:20,3.5,��쐼,2.9
2023/10/06,02:30,3.6,��,2.6
2023/10/06,02:40,3.6,��쐼,2.2
2023/10/06,02:50,3.7,���쐼,3.5
2023/10/06,03:00,3.6,��,5.6
2023/10/06,03:10,3.8,��,4.9
2023/10/06,03:20,3.8,��,4.8
2023/10/06,03:30,3.9,��,4.5
2023/10/06,03:40,3.6,���쐼,3.3
2023/10/06,03:50,3.8,���쐼,3.5
2023/10/06,04:00,3.6,��,3.7
2023/10/06,04:10,3.8,��,4.3
2023/10/06,04:20,3.7,��,5.0
2023/10/06,04:30,3.8,��,5.3
2023/10/06,04:40,3.8,���k��,4.6
2023/10/06,04:50,3.7,��,4.5
2023/10/06,05:00,3.6,���k��,4.3
2023/10/06,05:10,3.8,���k��,6.0
2023/10/06,05:20,3.6,���k��,6.8
2023/10/06,05:30,3.5,��,5.2
2023/10/06,05:40,3.6,���k��,6.3
2023/10/06,05:50,3.6,���k��,7.2
2023/10/06,06:00,3.5,��,6.6
2023/10/06,06:10,3.7,���k��,11.0
2023/10/06,06:20,3.7,���k��,9.7
2023/10/06,06:30,3.6,���k��,7.6
2023/10/06,06:40,3.7,���k��,7.1
2023/10/06,06:50,3.6,�k��,7.1
2023/10/06,07:00,3.7,���k��,8.6
2023/10/06,07:10,3.6,��,7.2
2023/10/06,07:20,3.7,���k��,7.7
2023/10/06,07:30,3.7,��,9.3
2023/10/06,07:40,3.7,���k��,9.6
2023/10/06,07:50,3.8,���k��,9.7
2023/10/06,08:00,3.8,���k��,7.7
2023/10/06,08:10,3.7,��,7.6
2023/10/06,08:20,3.6,��,7.5
2023/10/06,08:30,3.8,��,10.5
2023/10/06,08:40,3.8,��,7.9
2023/10/06,08:50,3.7,��,8.4
2023/10/06,09:00,3.7,��,10.9
2023/10/06,09:10,3.7,��,10.6
2023/10/06,09:20,3.7,��,9.3
2023/10/06,09:30,3.8,��,9.6
2023/10/06,09:40,3.6,���쐼,10.6
2023/10/06,09:50,3.8,��,9.1
2023/10/06,10:00,3.7,��,8.6
2023/10/06,10:10,3.7,��,13.5
2023/10/06,10:20,3.8,��,10.7
2023/10/06,10:30,3.8,��,9.1
2023/10/06,10:40,3.8,��,8.4
2023/10/06,10:50,3.7,���k��,11.6
2023/10/06,11:00,3.8,���k��,13.0
2023/10/06,11:10,3.7,��,9.8
2023/10/06,11:20,3.5,��,9.0
2023/10/06,11:30,3.6,��,10.3
2023/10/06,11:40,3.9,��,12.4
2023/10/06,11:50,3.6,��,8.3
2023/10/06,12:00,3.8,���쐼,9.6
2023/10/06,12:10,3.6,��,10.5
2023/10/06,12:20,3.7,��,9.7
2023/10/06,12:30,3.6,��,10.5
2023/10/06,12:40,3.6,��,10.6
2023/10/06,12:50,3.7,��,10.5
2023/10/06,13:00,3.8,��,10.3
2023/10/06,13:10,3.8,��,9.8
2023/10/06,13:20,3.6,��,9.7
2023/10/06,13:30,3.5,��,9.8
2023/10/06,13:40,3.8,���쐼,7.6
2023/10/06,13:50,3.7,��,8.9
2023/10/06,14:00,3.7,��,11.4
2023/10/06,14:10,3.8,��,9.5
2023/10/06,14:20,3.8,��,8.0
2023/10/06,14:30,3.7,���k��,7.0
2023/10/06,14:40,3.7,���k��,7.9
2023/10/06,14:50,3.7,��,6.2
2023/10/06,15:00,3.6,��,8.5
2023/10/06,15:10,3.8,���k��,5.9
2023/10/06,15:20,3.6,��,8.5
2023/10/06,15:30,3.6,��,7.5
2023/10/06,15:40,3.7,��,5.9
2023/10/06,15:50,3.6,���k��,4.6
2023/10/06,16:00,3.6,��,5.7
2023/10/06,16:10,3.6,��,5.5
2023/10/06,16:20,3.7,���k��,3.9
2023/10/06,16:30,3.7,���k��,4.4
2023/10/06,16:40,3.7,���k��,4.6
2023/10/06,16:50,3.7,�k��,2.3
2023/10/06,17:00,3.8,�k��,1.1
2023/10/06,17:10,3.7,�k�k��,3.1
2023/10/06,17:20,3.8,�k�k��,3.5
2023/10/06,17:30,3.8,�k�k��,3.8
2023/10/06,17:40,3.6,�k��,3.8
2023/10/06,17:50,3.7,�k��,3.1
2023/10/06,18:00,3.6,���k��,2.3
2023/10/06,18:10,3.7,���쐼,2.6
2023/10/06,18:20,3.6,��,3.1
2023/10/06,18:30,3.6,�쐼,3.0
2023/10/06,18:40,3.8,�쐼,5.3
2023/10/06,18:50,3.7,���쐼,5.6
2023/10/06,19:00,3.7,���쐼,6.2
2023/10/06,19:10,3.7,��,5.0
2023/10/06,19:20,3.7,��,5.9
2023/10/06,19:30,3.7,��,6.6
2023/10/06,19:40,3.6,��,7.9
2023/10/06,19:50,3.8,���쐼,5.4
2023/10/06,20:00,3.7,���쐼,5.5
2023/10/06,20:10,3.8,��,3.7
2023/10/06,20:20,3.7,��,2.0
2023/10/06,20:30,3.6,��,2.2
2023/10/06,20:40,3.6,���쐼,2.0
2023/10/06,20:50,3.8,�쐼,2.9
2023/10/06,21:00,3.9,���쐼,2.8
2023/10/06,21:10,3.6,��,3.8
2023/10/06,21:20,3.7,��,5.6
2023/10/06,21:30,3.7,��,6.4
2023/10/06,21:40,3.8,��,7.3
2023/10/06,21:50,3.7,��,8.3
2023/10/06,22:00,3.7,��,7.8
2023/10/06,22:10,3.7,��,7.2
2023/10/06,22:20,3.6,��,8.3
2023/10/06,22:30,3.6,���k��,6.9
2023/10/06,22:40,3.7,��,5.6
2023/10/06,22:50,3.9,���k��,6.2
2023/10/06,23:00,3.7,���k��,7.2
2023/10/06,23:10,3.9,���k��,8.7
2023/10/06,23:20,3.6,���k��,8.3
2023/10/06,23:30,3.9,���k��,7.2
2023/10/06,23:40,3.7,��,7.0
2023/10/06,23:50,3.7,���쐼,4.0
